Theta_e
325 323 322 324 324 323 322 322 322 324 326 324 325 325 325 327 327 328 328 328 328 329 329 328 327 326 324 322 322 321 320 322 326 331 330 328 328 328 329 327 326 325 324 326
323 324 324 324 323 324 324 323 324 324 325 324 324 324 325 326 326 327 327 328 327 326 325 324 324 323 322 321 321 321 320 319 318 319 323 323 326 325 326 327 327 327 326 326
324 325 325 325 324 324 323 320 321 322 323 321 321 322 323 326 326 326 326 325 324 324 324 323 323 322 322 321 321 320 319 320 318 318 318 316 315 317 317 320 322 323 325 324
325 324 324 324 325 323 324 321 321 320 319 319 319 317 318 325 324 324 324 324 324 324 323 322 321 321 321 320 320 320 320 319 318 317 317 317 316 313 312 313 318 319 320 321
324 326 325 324 325 324 324 322 320 320 318 319 318 317 317 325 325 323 324 324 324 324 323 322 321 320 320 319 318 319 316 317 317 316 316 315 315 314 313 312 312 312 313 315
326 325 325 324 325 324 324 322 320 320 318 319 319 321 323 326 325 324 323 325 324 323 322 321 320 319 318 317 317 316 315 315 315 314 314 314 314 315 314 313 313 312 311 313
326 326 324 325 325 322 319 318 318 322 320 322 319 320 326 323 321 321 321 322 321 320 320 319 319 318 318 316 316 315 315 315 314 314 315 314 314 314 314 313 313 312 313 313
327 330 326 325 323 322 319 319 316 323 322 318 319 328 325 322 323 322 321 321 321 320 320 319 318 316 316 316 315 314 312 313 312 313 314 314 314 314 314 314 315 315 315 314
326 327 325 324 322 320 319 321 320 320 322 320 320 325 323 322 322 321 320 319 320 320 319 317 316 314 315 313 312 311 312 313 312 312 312 312 313 313 313 314 314 313 313 313
326 327 327 323 323 320 319 320 315 322 323 323 320 321 323 322 321 320 319 319 317 316 315 315 314 314 311 310 312 311 311 311 311 311 311 311 311 311 310 309 310 311 311 311
325 326 328 326 324 321 322 321 317 318 319 320 322 320 322 322 321 319 318 317 316 315 314 314 313 312 311 311 311 311 310 310 309 308 309 310 309 308 309 310 309 309 309 309
325 326 327 326 322 320 319 318 318 321 321 322 322 321 323 322 320 319 318 316 315 314 314 313 312 311 312 312 311 311 310 309 308 308 308 307 308 307 307 307 307 307 308 307
326 324 324 326 323 323 323 324 320 319 320 321 321 322 323 321 318 317 316 315 314 314 314 313 312 311 312 311 311 310 308 308 308 307 307 307 306 306 306 306 306 306 306 306
323 323 324 327 326 323 324 324 321 319 320 323 323 321 319 317 315 317 316 315 314 314 314 313 312 312 312 311 310 309 308 308 307 307 307 305 305 305 304 304 305 305 305 305
320 323 324 323 323 322 321 320 319 317 318 319 320 320 317 316 315 316 316 315 314 314 313 312 312 312 311 310 309 308 308 308 308 306 305 305 305 305 304 304 305 305 305 305
324 323 325 326 324 321 321 322 321 322 321 320 319 319 317 317 316 316 316 315 314 314 312 312 312 311 310 309 309 308 308 308 305 305 305 304 305 305 305 305 305 305 306 306
323 323 325 326 324 323 321 324 323 322 319 318 318 319 317 315 316 317 315 314 314 312 312 312 310 310 309 309 308 307 307 306 305 305 304 304 305 305 305 306 306 306 306 305
321 324 325 324 324 325 321 322 322 321 318 316 316 318 317 317 317 317 316 314 311 312 312 311 310 309 308 307 307 307 307 306 306 305 305 306 306 306 306 307 307 306 306 306
321 321 322 322 323 323 322 325 323 317 317 319 318 319 318 318 317 317 316 313 311 312 311 310 309 309 307 307 306 306 306 306 306 306 306 307 307 307 307 307 307 307 308 307
324 320 320 322 323 324 325 321 320 318 318 320 319 319 319 318 314 314 314 311 311 311 310 309 308 307 306 306 306 306 305 306 306 306 307 308 308 307 307 308 307 307 308 307
323 324 323 322 321 323 322 320 319 320 317 320 319 319 318 316 316 315 312 310 312 311 310 308 308 307 306 305 305 305 304 306 306 308 308 309 309 309 308 308 308 308 308 308
326 324 324 324 325 325 320 320 319 321 319 319 318 318 316 315 314 312 311 311 312 311 310 309 307 305 305 305 304 303 304 306 307 308 310 310 310 309 308 308 308 308 308 308
322 322 324 323 322 323 320 322 320 319 318 319 317 315 315 313 312 311 311 313 311 310 309 308 306 306 305 304 303 304 304 306 307 309 309 310 309 309 309 308 308 308 308 309
323 323 319 320 321 322 323 321 321 320 319 317 316 316 314 312 311 310 312 312 310 310 309 306 306 305 305 304 304 304 304 306 307 309 309 309 309 310 309 309 308 309 311 313
321 321 322 322 322 321 320 320 319 318 318 317 316 314 313 312 310 311 311 311 310 309 307 306 306 305 305 305 305 305 305 305 307 307 308 308 309 309 310 309 309 308 309 311
322 320 321 321 320 322 321 319 318 317 317 317 315 314 312 311 310 311 312 311 310 309 306 307 306 305 305 305 305 306 305 306 306 307 307 308 309 309 310 310 310 310 309 310
Wind_Speed
17 2 3 4 5 6 8 8 9 2 8 6 3 9 9 15 17 22 24 20 17 14 10 8 8 11 13 14 15 16 17 17 6 7 10 6 7 7 4 8 6 8 10 6
7 5 6 8 8 4 7 7 8 9 8 5 3 1 8 16 11 23 26 25 23 17 10 8 7 8 10 14 16 13 13 16 18 14 14 17 14 15 14 12 9 12 13 15
2 4 8 7 7 9 7 9 9 8 9 7 6 4 5 5 22 25 22 17 12 9 4 2 2 5 8 13 15 15 16 9 11 15 20 19 20 23 24 19 19 20 21 20
3 8 5 7 9 9 6 9 8 10 9 4 5 5 8 11 8 13 17 14 16 12 9 5 6 8 7 10 16 13 3 5 8 17 23 25 23 26 33 32 30 28 25 20
6 5 7 7 5 3 3 6 7 9 7 4 9 1 7 9 8 9 18 19 14 11 4 5 12 11 9 9 7 6 13 17 19 22 23 23 22 23 24 28 31 34 33 30
3 5 3 3 7 7 2 5 8 5 2 2 11 7 2 3 2 5 11 11 12 6 3 5 7 10 14 15 21 21 22 20 24 26 23 22 22 19 22 27 30 33 33 28
9 3 8 6 5 9 10 7 4 6 3 5 12 7 3 6 11 14 12 9 5 6 8 11 13 15 20 22 14 21 24 19 19 20 19 21 24 24 26 32 29 26 25 27
5 5 4 3 4 2 6 2 4 2 3 5 7 4 2 6 11 9 4 5 5 8 12 16 20 24 25 28 19 21 31 34 27 19 16 20 22 27 31 29 26 24 24 28
4 2 3 6 5 3 6 4 3 1 4 2 1 4 2 6 4 9 11 9 12 15 16 20 21 19 18 19 17 19 15 13 13 18 20 20 18 20 22 23 27 29 28 28
3 4 3 4 3 5 1 1 5 3 0 3 7 4 2 4 6 5 7 12 15 18 21 23 23 18 15 12 10 10 17 23 27 30 33 34 35 35 36 39 34 31 30 31
5 3 6 7 2 6 1 2 1 3 4 4 1 5 4 2 2 4 12 17 18 20 22 19 18 21 17 15 18 19 24 29 36 41 38 37 37 39 30 22 26 31 31 28
1 2 2 6 8 4 3 2 3 5 5 1 4 5 2 1 14 15 13 15 19 22 18 20 20 24 19 21 25 29 35 40 43 38 37 33 33 34 34 34 35 34 34 34
3 2 3 10 5 3 3 3 4 4 4 5 4 6 7 8 11 17 18 21 24 22 21 23 28 23 19 20 27 34 42 39 43 37 40 44 41 41 42 38 27 28 31 32
4 1 3 5 7 5 6 7 6 6 4 6 7 9 6 6 8 17 20 22 20 21 25 27 22 20 21 27 33 43 40 39 39 43 41 35 30 28 29 26 26 25 24 27
5 2 4 8 11 12 9 10 8 7 7 5 7 3 4 5 8 18 20 23 18 23 24 21 21 19 28 34 41 37 36 43 44 32 31 31 29 28 27 27 25 24 25 23
4 2 4 6 11 13 15 13 8 6 7 5 6 3 5 14 22 25 22 21 24 24 21 22 21 27 34 37 32 35 40 42 33 33 34 30 28 27 26 26 24 25 23 22
5 4 2 4 7 11 8 6 2 3 6 3 4 2 12 13 19 19 19 23 23 21 21 19 24 30 26 26 32 37 41 36 33 33 31 28 28 28 26 26 24 25 24 20
2 1 2 4 6 3 7 6 7 5 6 6 5 6 11 14 18 19 19 24 21 21 19 24 26 26 32 31 33 37 38 32 32 32 31 30 30 28 25 24 24 21 20 18
9 4 2 2 3 9 11 4 3 4 3 5 5 9 11 14 16 13 23 18 22 18 22 22 27 33 37 33 37 37 36 30 32 32 30 29 27 25 24 22 21 19 20 21
7 6 4 2 1 4 3 6 12 7 2 8 10 8 11 15 5 5 16 20 18 20 22 30 34 36 27 33 36 36 33 30 32 30 27 27 29 26 25 24 23 22 22 22
4 3 7 5 5 7 3 11 5 2 6 4 5 7 9 4 12 15 19 25 18 23 32 33 37 37 29 34 35 34 30 27 30 27 27 29 27 25 25 23 20 19 18 20
8 6 5 4 5 7 15 5 4 6 3 3 6 6 10 14 12 17 23 22 22 30 31 32 34 35 30 36 32 28 27 25 28 27 28 28 28 31 29 21 19 17 17 18
1 6 5 6 6 11 16 9 9 6 4 1 5 9 10 11 15 20 21 18 27 27 30 32 30 29 35 31 26 26 24 23 27 26 26 30 32 33 26 22 18 16 14 14
4 3 4 3 1 4 10 13 12 8 6 3 6 5 8 13 17 17 16 23 25 26 30 31 30 35 33 27 26 25 21 21 22 22 25 28 32 30 27 21 19 19 17 13
4 5 2 2 3 5 4 5 11 8 4 4 2 6 11 13 13 14 19 21 22 28 35 26 31 33 28 26 25 23 22 20 21 22 24 28 29 26 25 22 20 22 25 20
7 4 2 5 8 6 5 10 8 6 3 1 3 9 11 8 10 15 15 19 26 31 27 26 31 29 25 24 23 23 23 21 20 22 24 26 29 24 23 19 19 21 24 25
Wind_Direction
280 238 295 33 47 14 346 348 340 318 210 146 171 159 171 148 151 136 120 116 110 102 98 65 36 20 12 8 1 358 360 7 348 3 355 336 354 332 283 271 253 242 228 246
310 58 0 359 337 36 19 19 359 334 28 36 75 315 142 165 164 139 126 122 121 121 105 77 49 32 8 353 346 345 349 344 340 344 338 331 321 320 310 278 240 236 223 235
14 51 22 11 15 36 32 32 2 340 333 357 2 315 259 147 118 107 117 123 129 131 132 130 334 323 336 338 326 321 323 332 337 333 325 319 309 298 304 320 316 312 297 301
35 86 51 332 56 39 5 15 358 332 356 308 46 286 311 146 116 120 132 151 148 142 137 91 7 309 330 336 318 310 335 348 341 340 330 321 319 312 307 296 299 301 308 321
270 51 49 11 44 44 250 343 288 280 283 329 292 3 287 116 141 168 166 152 152 145 145 318 316 291 326 357 9 61 335 337 328 324 315 310 308 305 309 304 304 306 300 298
236 103 90 64 353 311 294 310 322 282 171 332 266 199 333 24 167 102 63 122 112 100 34 323 20 4 355 339 331 323 335 331 328 325 317 311 305 289 298 299 301 303 305 302
328 232 86 85 12 359 21 44 347 351 21 208 341 35 28 65 58 75 70 66 16 342 3 24 8 342 331 334 329 320 318 320 320 316 318 313 307 293 294 293 289 288 286 282
16 347 25 110 81 349 288 129 140 276 355 285 320 52 197 106 97 96 70 88 60 48 18 5 350 333 319 309 308 321 317 306 315 329 323 310 302 299 301 289 281 266 267 274
10 40 128 81 48 93 309 50 189 71 293 4 196 90 63 158 118 52 34 22 56 20 5 348 348 347 337 336 348 343 331 324 321 315 307 304 304 304 302 292 284 277 272 269
331 336 344 149 206 142 206 273 33 353 274 298 325 3 155 43 9 8 10 62 35 17 3 354 345 348 9 3 349 348 325 322 323 320 313 307 302 299 300 297 290 289 286 284
28 76 298 344 239 195 165 289 219 143 140 166 258 281 172 132 256 62 50 33 21 9 357 7 12 3 355 351 350 339 331 328 325 320 312 304 302 300 292 285 295 297 291 282
71 115 305 270 298 77 87 315 116 116 291 3 150 262 10 302 57 59 40 30 11 2 1 5 5 354 343 342 334 330 328 326 326 322 316 315 305 305 300 294 289 288 285 290
335 317 353 330 29 42 227 250 213 185 123 202 162 260 270 37 53 35 38 20 5 5 10 354 347 345 352 340 333 333 331 326 325 322 317 313 305 299 300 302 297 289 286 284
77 347 181 208 262 304 285 253 232 189 132 221 220 261 351 13 22 26 18 5 2 3 354 345 353 346 338 336 336 331 329 327 323 319 320 321 323 319 315 312 307 301 295 293
114 219 279 286 291 297 298 301 288 275 241 177 244 256 31 35 31 18 2 354 3 0 347 356 351 342 335 334 330 329 328 329 327 331 328 327 323 319 315 311 308 305 300 294
174 243 314 298 292 287 288 280 271 310 297 45 28 43 48 31 16 5 356 11 358 349 356 350 338 334 336 332 328 330 335 336 333 332 329 326 326 320 317 316 311 309 304 302
164 172 355 270 310 317 323 289 306 95 65 89 55 313 32 15 4 351 11 8 356 360 355 351 346 340 336 325 331 335 338 337 337 337 336 333 327 326 318 317 316 309 306 303
174 62 195 264 316 267 244 61 78 92 76 35 15 40 22 8 349 344 4 360 7 3 354 348 343 339 334 332 338 338 340 338 340 342 339 335 331 327 321 321 320 310 311 302
171 128 290 180 230 262 300 117 146 131 294 78 69 23 357 343 336 345 351 357 355 350 352 350 339 335 335 340 340 339 341 342 344 344 339 340 340 331 327 322 317 312 308 304
149 147 139 346 297 251 222 139 127 131 347 65 38 356 347 358 13 288 5 2 356 350 351 343 337 339 337 339 338 339 343 345 347 344 342 343 339 339 328 323 318 313 306 302
143 183 191 216 227 265 74 109 124 125 234 22 339 344 359 3 329 350 355 355 344 342 343 342 340 336 334 338 338 338 342 346 348 346 344 350 355 349 340 330 324 319 314 309
170 171 195 206 222 279 139 135 163 185 181 316 331 15 357 335 355 356 350 341 336 343 342 337 337 339 338 338 341 340 343 345 351 349 353 359 356 348 347 338 329 327 320 321
309 177 194 157 210 164 183 176 167 178 235 248 56 1 342 6 4 354 346 341 343 342 336 335 342 341 341 344 348 344 346 349 353 353 357 1 359 354 352 349 345 341 338 340
314 188 170 86 144 151 200 205 201 208 165 82 11 4 6 5 354 346 340 341 341 339 337 339 345 343 346 349 351 349 350 348 352 354 357 0 360 1 6 11 16 10 358 5
235 341 309 251 176 234 323 200 140 118 85 34 61 14 359 349 345 347 344 344 335 338 341 346 345 346 348 351 357 357 354 347 349 354 359 1 1 8 16 22 27 31 33 26
273 215 161 226 316 222 151 147 143 134 116 61 353 345 349 340 347 343 352 337 334 338 341 348 348 348 353 1 0 357 355 355 354 356 359 359 359 12 16 21 31 40 39 39